Weather in Dada

Russia / Khabarovsk Krai     49°10′08″N   136°28′16″E
temp.,
°C
wind,
m/s
gust,
m/s
humid.,
%
clouds,
%
prec.,
mm/h
press.,
hPa
HPBL,
m
27 february, sat
sat2701:00−19ssw489899 0.0 1033186
04:00−20s499794 0.1 1034198
07:00−21ssw4109551 0.0 1035222
10:00−18ssw5108935 0.0 1033347
13:00−13ssw598564 0.0 1031463
16:00−11sw478580 0.0 1028488
19:00−13sw1190100 0.0 102620
22:00−13ene1192100 0.0 102320
28 february, sun
sun2801:00−11ssw2592100 0.0 1019147
04:00−7sw51295100 1.3 1016703
07:00−6sw61294100 1.4 1015794
10:00−5sw71389100 2.1 1015562
13:00−5sw7137995 0.0 1015663
16:00−6sw8137498 0.0 1016905
19:00−9sw81567100 0.0 1019660
22:00−13sw6147489 0.0 1021583
1 march, mon
mon101:00−16sw614780 0.0 1023552
04:00−18sw713783 0.0 1024477
07:00−20ssw6118394 0.0 1026352
10:00−19ssw7107995 0.0 1028652
13:00−15sw710660 0.0 10271133
16:00−13wsw812640 0.0 10281156
19:00−16sw614720 0.0 1029617
22:00−18sw514760 0.0 1031469
2 march, tue
tue201:00−20sw513780 0.0 1031421
04:00−22ssw511860 0.0 1031284
07:00−24ssw48910 0.0 1032172
10:00−21ssw59850 0.0 1031308
13:00−18sw47740 0.0 1030815
16:00−16sw35701 0.0 1029664
19:00−19s48880 0.0 1031160
22:00−22s48920 0.0 1032145
3 march, wed
wed301:00−24ssw37900 0.0 1031122
04:00−25ssw33930 0.0 103066
07:00−26s35920 0.0 103076
10:00−21ssw37860 0.0 1029277
13:00−15ssw377936 0.0 1025489
16:00−12wsw247667 0.0 1022483
19:00−16n0087100 0.0 102020
22:00−15ssw0188100 0.0 101920